User: anonymous   Login
Location: Newark
(44.6028°N, 124.0883°W)
Time: 08:55:41
(UTC+00:00)
Language:

Courier 1B - Orbit

View from above orbital plane
View from above orbital plane
View from above satellite
View from above satellite

Ground track
Ground track

The orbit data is extracted from the following two-line orbital elements,

1    58U 60013A   19291.13956343  .00000096  00000-0  11198-4 0  9998
2    58  28.3276 249.0219 0165022 214.8273 144.1374 13.46319385906331
Epoch (UTC): 18 October 2019 03:20:58
Eccentricity: 0.0165022
inclination: 28.3276°
perigee height: 962 km
apogee height: 1209 km
right ascension of ascending node: 249.0219°
argument of perigee: 214.8273°
revolutions per day: 13.46319385
mean anomaly at epoch: 144.1374°
orbit number at epoch: 90633

The dashed part of the orbit path shows where the satellite is in the earth's shadow,  

DLR